| time (UTC) | temp F | wind direction | speed MPH | gust MPH | rain 1hr in | rain 24hr in | rain mn in | humidity % | barometer mb |
| 20260503213555 | 84 | 224 | 2.0 | 12.0 | 0.00 | 0.00 | 0.00 | 32 | 1016.2 |
| 20260503213107 | 84 | 242 | 4.0 | 12.0 | 0.00 | 0.00 | 0.00 | 32 | 1016.3 |
| 20260503212558 | 84 | 188 | 3.0 | 9.0 | 0.00 | 0.00 | 0.00 | 32 | 1016.3 |
| 20260503212055 | 84 | 214 | 2.0 | 13.0 | 0.00 | 0.00 | 0.00 | 33 | 1016.3 |
| 20260503211555 | 84 | 275 | 3.0 | 13.0 | 0.00 | 0.00 | 0.00 | 31 | 1016.5 |
| 20260503211054 | 84 | 188 | 4.0 | 13.0 | 0.00 | 0.00 | 0.00 | 33 | 1016.5 |
| 20260503210555 | 85 | 171 | 4.0 | 9.0 | 0.00 | 0.00 | 0.00 | 34 | 1016.6 |
| 20260503205555 | 85 | 166 | 2.0 | 9.0 | 0.00 | 0.00 | 0.00 | 33 | 1016.8 |
| 20260503205058 | 85 | 187 | 3.0 | 10.0 | 0.00 | 0.00 | 0.00 | 34 | 1016.8 |
| 20260503204556 | 85 | 182 | 3.0 | 13.0 | 0.00 | 0.00 | 0.00 | 35 | 1017.0 |
| 20260503204058 | 84 | 221 | 4.0 | 13.0 | 0.00 | 0.00 | 0.00 | 34 | 1017.0 |
| 20260503203554 | 84 | 263 | 4.0 | 10.0 | 0.00 | 0.00 | 0.00 | 34 | 1017.2 |
| 20260503203104 | 84 | 210 | 3.0 | 10.0 | 0.00 | 0.00 | 0.00 | 34 | 1017.2 |
| 20260503202555 | 84 | 194 | 4.0 | 10.0 | 0.00 | 0.00 | 0.00 | 34 | 1017.4 |
| 20260503202055 | 85 | 310 | 1.0 | 11.0 | 0.00 | 0.00 | 0.00 | 36 | 1017.5 |
| 20260503201558 | 84 | 202 | 2.0 | 11.0 | 0.00 | 0.00 | 0.00 | 32 | 1017.6 |
| 20260503201054 | 85 | 186 | 3.0 | 12.0 | 0.00 | 0.00 | 0.00 | 33 | 1017.7 |
| 20260503200557 | 85 | 232 | 3.0 | 12.0 | 0.00 | 0.00 | 0.00 | 34 | 1017.8 |
| 20260503195555 | 85 | 281 | 2.0 | 12.0 | 0.00 | 0.00 | 0.00 | 39 | 1017.9 |
| 20260503195055 | 85 | 150 | 3.0 | 12.0 | 0.00 | 0.00 | 0.00 | 38 | 1018.1 |
| 20260503194558 | 85 | 238 | 2.0 | 11.0 | 0.00 | 0.00 | 0.00 | 39 | 1018.1 |
| 20260503194058 | 85 | 0 | 2.0 | 12.0 | 0.00 | 0.00 | 0.00 | 36 | 1018.1 |
| 20260503193111 | 84 | 186 | 4.0 | 14.0 | 0.00 | 0.00 | 0.00 | 36 | 1018.2 |
| 20260503192555 | 85 | 203 | 3.0 | 11.0 | 0.00 | 0.00 | 0.00 | 38 | 1018.3 |
| 20260503192055 | 85 | 209 | 3.0 | 11.0 | 0.00 | 0.00 | 0.00 | 36 | 1018.5 |
| 20260503191609 | 85 | 259 | 3.0 | 11.0 | 0.00 | 0.00 | 0.00 | 42 | 1018.4 |
| 20260503191055 | 85 | 223 | 3.0 | 8.0 | 0.00 | 0.00 | 0.00 | 38 | 1018.5 |
| 20260503190554 | 84 | 227 | 2.0 | 8.0 | 0.00 | 0.00 | 0.00 | 37 | 1018.5 |
| 20260503190057 | 85 | 274 | 2.0 | 9.0 | 0.00 | 0.00 | 0.00 | 38 | 1018.6 |
| 20260503185554 | 84 | 201 | 3.0 | 11.0 | 0.00 | 0.00 | 0.00 | 34 | 1018.6 |
| 20260503185058 | 84 | 184 | 3.0 | 12.0 | 0.00 | 0.00 | 0.00 | 37 | 1018.7 |
| 20260503184607 | 84 | 186 | 3.0 | 12.0 | 0.00 | 0.00 | 0.00 | 37 | 1018.7 |
| 20260503184055 | 84 | 179 | 2.0 | 12.0 | 0.00 | 0.00 | 0.00 | 38 | 1018.7 |
| 20260503183555 | 84 | 252 | 2.0 | 12.0 | 0.00 | 0.00 | 0.00 | 39 | 1018.9 |
| 20260503183109 | 85 | 180 | 2.0 | 8.0 | 0.00 | 0.00 | 0.00 | 39 | 1018.9 |
| 20260503182558 | 84 | 196 | 3.0 | 9.0 | 0.00 | 0.00 | 0.00 | 39 | 1019.1 |
| 20260503182057 | 83 | 227 | 3.0 | 14.0 | 0.00 | 0.00 | 0.00 | 37 | 1019.3 |
| 20260503181608 | 83 | 190 | 4.0 | 15.0 | 0.00 | 0.00 | 0.00 | 38 | 1019.3 |
| 20260503181055 | 84 | 147 | 3.0 | 15.0 | 0.00 | 0.00 | 0.00 | 38 | 1019.4 |
| 20260503180556 | 84 | 197 | 2.0 | 10.0 | 0.00 | 0.00 | 0.00 | 38 | 1019.5 |
| 20260503180058 | 84 | 249 | 2.0 | 10.0 | 0.00 | 0.00 | 0.00 | 43 | 1019.6 |
| 20260503175555 | 84 | 306 | 3.0 | 9.0 | 0.00 | 0.00 | 0.00 | 39 | 1019.7 |
| 20260503175059 | 84 | 233 | 1.0 | 12.0 | 0.00 | 0.00 | 0.00 | 45 | 1019.8 |
| 20260503174555 | 83 | 182 | 4.0 | 12.0 | 0.00 | 0.00 | 0.00 | 43 | 1019.9 |
| 20260503174055 | 83 | 311 | 3.0 | 10.0 | 0.00 | 0.00 | 0.00 | 40 | 1020.0 |
| 20260503173555 | 84 | 238 | 1.0 | 9.0 | 0.00 | 0.00 | 0.00 | 42 | 1020.1 |
| 20260503173100 | 83 | 223 | 3.0 | 9.0 | 0.00 | 0.00 | 0.00 | 44 | 1020.2 |
| 20260503172554 | 83 | 159 | 3.0 | 9.0 | 0.00 | 0.00 | 0.00 | 43 | 1020.2 |
| 20260503172055 | 82 | 275 | 2.0 | 8.0 | 0.00 | 0.00 | 0.00 | 43 | 1020.2 |
| 20260503171553 | 82 | 217 | 2.0 | 9.0 | 0.00 | 0.00 | 0.00 | 43 | 1020.4 |
| 20260503171056 | 82 | 230 | 2.0 | 11.0 | 0.00 | 0.00 | 0.00 | 44 | 1020.5 |
| 20260503170555 | 81 | 247 | 4.0 | 11.0 | 0.00 | 0.00 | 0.00 | 44 | 1020.6 |
| 20260503150555 | 75 | 265 | 2.0 | 7.0 | 0.00 | 0.00 | 0.00 | 52 | 1021.1 |
| 20260503131054 | 58 | 0 | 0.0 | 3.0 | 0.00 | 0.00 | 0.00 | 82 | 1020.7 |
| 20260503130555 | 57 | 0 | 0.0 | 2.0 | 0.00 | 0.00 | 0.00 | 83 | 1020.7 |
| 20260503110556 | 52 | 0 | 0.0 | 1.0 | 0.00 | 0.00 | 0.00 | 80 | 1019.8 |
| 20260503081628 | 55 | 0 | 0.0 | 1.0 | 0.00 | 0.00 | 0.00 | 78 | 1019.6 |
| 20260503081055 | 55 | 0 | 0.0 | 1.0 | 0.00 | 0.00 | 0.00 | 78 | 1019.5 |
| 20260503080556 | 55 | 0 | 0.0 | 3.0 | 0.00 | 0.00 | 0.00 | 78 | 1019.6 |
| 20260503080111 | 55 | 0 | 0.0 | 3.0 | 0.00 | 0.00 | 0.00 | 78 | 1019.6 |
| 20260503072555 | 55 | 0 | 0.0 | 2.0 | 0.00 | 0.00 | 0.00 | 77 | 1019.8 |
| 20260503072056 | 55 | 0 | 0.0 | 1.0 | 0.00 | 0.00 | 0.00 | 78 | 1019.8 |
| 20260503071555 | 55 | 0 | 0.0 | 1.0 | 0.00 | 0.00 | 0.00 | 77 | 1019.9 |
| 20260503071055 | 56 | 0 | 0.0 | 1.0 | 0.00 | 0.00 | 0.00 | 77 | 1020.0 |
| 20260503070558 | 56 | 0 | 0.0 | 1.0 | 0.00 | 0.00 | 0.00 | 77 | 1020.0 |
| 20260503055055 | 58 | 0 | 0.0 | 1.0 | 0.00 | 0.00 | 0.00 | 73 | 1019.7 |
| 20260503054555 | 58 | 0 | 0.0 | 1.0 | 0.00 | 0.00 | 0.00 | 72 | 1019.6 |
| 20260503054057 | 58 | 0 | 0.0 | 1.0 | 0.00 | 0.00 | 0.00 | 72 | 1019.6 |
| 20260503053555 | 58 | 0 | 0.0 | 0.0 | 0.00 | 0.00 | 0.00 | 72 | 1019.6 |
| 20260503053055 | 58 | 0 | 0.0 | 0.0 | 0.00 | 0.00 | 0.00 | 71 | 1019.7 |
| 20260503052555 | 59 | 0 | 0.0 | 0.0 | 0.00 | 0.00 | 0.00 | 71 | 1019.6 |
| 20260503052056 | 59 | 0 | 0.0 | 0.0 | 0.00 | 0.00 | 0.00 | 71 | 1019.5 |
| 20260503051552 | 59 | 0 | 0.0 | 0.0 | 0.00 | 0.00 | 0.00 | 71 | 1019.5 |
| 20260503051054 | 59 | 0 | 0.0 | 0.0 | 0.00 | 0.00 | 0.00 | 71 | 1019.4 |
| 20260503050557 | 59 | 0 | 0.0 | 0.0 | 0.00 | 0.00 | 0.00 | 70 | 1019.4 |
| 20260503050058 | 59 | 0 | 0.0 | 1.0 | 0.00 | 0.00 | 0.00 | 70 | 1019.4 |
| 20260503045556 | 59 | 0 | 0.0 | 1.0 | 0.00 | 0.00 | 0.00 | 70 | 1019.4 |
| 20260503045056 | 59 | 0 | 0.0 | 2.0 | 0.00 | 0.00 | 0.00 | 70 | 1019.4 |
| 20260503044605 | 60 | 0 | 0.0 | 2.0 | 0.00 | 0.00 | 0.00 | 70 | 1019.3 |
| 20260503044055 | 60 | 0 | 0.0 | 0.0 | 0.00 | 0.00 | 0.00 | 69 | 1019.4 |
| 20260503043555 | 60 | 0 | 0.0 | 0.0 | 0.00 | 0.00 | 0.00 | 69 | 1019.4 |
| 20260503043059 | 60 | 0 | 0.0 | 0.0 | 0.00 | 0.00 | 0.00 | 69 | 1019.4 |
| 20260503042555 | 60 | 0 | 0.0 | 0.0 | 0.00 | 0.00 | 0.00 | 68 | 1019.4 |
| 20260503042055 | 61 | 0 | 0.0 | 0.0 | 0.00 | 0.00 | 0.00 | 68 | 1019.3 |
| 20260503041554 | 61 | 0 | 0.0 | 0.0 | 0.00 | 0.00 | 0.00 | 68 | 1019.4 |
| 20260503041055 | 61 | 0 | 0.0 | 0.0 | 0.00 | 0.00 | 0.00 | 67 | 1019.3 |
| 20260503040554 | 61 | 0 | 0.0 | 0.0 | 0.00 | 0.00 | 0.00 | 66 | 1019.4 |
| 20260503040100 | 61 | 0 | 0.0 | 0.0 | 0.00 | 0.00 | 0.00 | 65 | 1019.4 |
| 20260503035557 | 62 | 0 | 0.0 | 0.0 | 0.00 | 0.00 | 0.00 | 65 | 1019.4 |
| 20260503035056 | 62 | 0 | 0.0 | 0.0 | 0.00 | 0.00 | 0.00 | 64 | 1019.4 |
| 20260503034555 | 62 | 0 | 0.0 | 0.0 | 0.00 | 0.00 | 0.00 | 62 | 1019.5 |
| 20260503034057 | 63 | 0 | 0.0 | 0.0 | 0.00 | 0.00 | 0.00 | 61 | 1019.5 |
| 20260503033555 | 63 | 0 | 0.0 | 0.0 | 0.00 | 0.00 | 0.00 | 61 | 1019.4 |
| 20260503033134 | 64 | 0 | 0.0 | 0.0 | 0.00 | 0.00 | 0.00 | 60 | 1019.4 |
| 20260503032555 | 64 | 0 | 0.0 | 0.0 | 0.00 | 0.00 | 0.00 | 60 | 1019.5 |
| 20260503032055 | 64 | 0 | 0.0 | 0.0 | 0.00 | 0.00 | 0.00 | 60 | 1019.4 |
| 20260503031559 | 64 | 0 | 0.0 | 0.0 | 0.00 | 0.00 | 0.00 | 60 | 1019.4 |
| 20260503031054 | 65 | 0 | 0.0 | 0.0 | 0.00 | 0.00 | 0.00 | 60 | 1019.4 |
| 20260503030558 | 65 | 0 | 0.0 | 0.0 | 0.00 | 0.00 | 0.00 | 59 | 1019.3 |
| 20260503030109 | 65 | 0 | 0.0 | 0.0 | 0.00 | 0.00 | 0.00 | 59 | 1019.3 |
| 20260503025555 | 65 | 0 | 0.0 | 0.0 | 0.00 | 0.00 | 0.00 | 58 | 1019.2 |
| 20260503025055 | 66 | 0 | 0.0 | 2.0 | 0.00 | 0.00 | 0.00 | 58 | 1019.2 |
| 20260503024621 | 66 | 0 | 0.0 | 2.0 | 0.00 | 0.00 | 0.00 | 57 | 1019.1 |
| 20260503024058 | 66 | 0 | 0.0 | 2.0 | 0.00 | 0.00 | 0.00 | 57 | 1019.1 |
| 20260503023556 | 67 | 360 | 0.0 | 2.0 | 0.00 | 0.00 | 0.00 | 57 | 1019.0 |
| 20260503023102 | 67 | 0 | 0.0 | 2.0 | 0.00 | 0.00 | 0.00 | 57 | 1019.0 |
| 20260503022559 | 68 | 0 | 0.0 | 2.0 | 0.00 | 0.00 | 0.00 | 56 | 1019.0 |
| 20260503022055 | 68 | 360 | 0.0 | 0.0 | 0.00 | 0.00 | 0.00 | 56 | 1018.9 |
| 20260503021604 | 68 | 0 | 0.0 | 0.0 | 0.00 | 0.00 | 0.00 | 55 | 1018.9 |
| 20260503021055 | 69 | 0 | 0.0 | 0.0 | 0.00 | 0.00 | 0.00 | 54 | 1018.9 |
| 20260503020557 | 69 | 0 | 0.0 | 2.0 | 0.00 | 0.00 | 0.00 | 53 | 1018.9 |
| 20260503020053 | 69 | 0 | 0.0 | 2.0 | 0.00 | 0.00 | 0.00 | 53 | 1018.8 |
| 20260503015556 | 70 | 0 | 0.0 | 2.0 | 0.00 | 0.00 | 0.00 | 52 | 1018.7 |
| 20260503015055 | 70 | 0 | 0.0 | 2.0 | 0.00 | 0.00 | 0.00 | 51 | 1018.7 |
| 20260503014554 | 71 | 0 | 0.0 | 2.0 | 0.00 | 0.00 | 0.00 | 49 | 1018.6 |
| 20260503014055 | 71 | 0 | 0.0 | 3.0 | 0.00 | 0.00 | 0.00 | 49 | 1018.6 |
| 20260503013556 | 72 | 0 | 0.0 | 3.0 | 0.00 | 0.00 | 0.00 | 48 | 1018.6 |
| 20260503013057 | 72 | 0 | 0.0 | 2.0 | 0.00 | 0.00 | 0.00 | 47 | 1018.6 |
| 20260503012558 | 73 | 0 | 0.0 | 2.0 | 0.00 | 0.00 | 0.00 | 46 | 1018.5 |
| 20260503012055 | 74 | 0 | 0.0 | 2.0 | 0.00 | 0.00 | 0.00 | 46 | 1018.5 |
| 20260503011603 | 74 | 0 | 0.0 | 2.0 | 0.00 | 0.00 | 0.00 | 45 | 1018.4 |
| 20260503011055 | 75 | 0 | 0.0 | 2.0 | 0.00 | 0.00 | 0.00 | 45 | 1018.4 |
| 20260503010555 | 75 | 0 | 0.0 | 2.0 | 0.00 | 0.00 | 0.00 | 44 | 1018.4 |
| 20260503010055 | 76 | 0 | 0.0 | 2.0 | 0.00 | 0.00 | 0.00 | 44 | 1018.4 |
| 20260503005555 | 77 | 0 | 0.0 | 2.0 | 0.00 | 0.00 | 0.00 | 44 | 1018.4 |
| 20260503005056 | 77 | 0 | 0.0 | 2.0 | 0.00 | 0.00 | 0.00 | 44 | 1018.3 |
| 20260503004556 | 77 | 0 | 0.0 | 1.0 | 0.00 | 0.00 | 0.00 | 43 | 1018.3 |
| 20260503004057 | 77 | 0 | 0.0 | 1.0 | 0.00 | 0.00 | 0.00 | 42 | 1018.3 |
| 20260503003556 | 77 | 0 | 0.0 | 1.0 | 0.00 | 0.00 | 0.00 | 43 | 1018.3 |
| 20260503003059 | 78 | 0 | 0.0 | 2.0 | 0.00 | 0.00 | 0.00 | 43 | 1018.3 |
| 20260503002556 | 78 | 0 | 0.0 | 2.0 | 0.00 | 0.00 | 0.00 | 42 | 1018.4 |
| 20260503002056 | 78 | 0 | 0.0 | 2.0 | 0.00 | 0.00 | 0.00 | 41 | 1018.3 |
| 20260503001603 | 78 | 0 | 0.0 | 3.0 | 0.00 | 0.00 | 0.00 | 42 | 1018.3 |
| 20260503001057 | 78 | 0 | 0.0 | 3.0 | 0.00 | 0.00 | 0.00 | 41 | 1018.2 |
| 20260503000556 | 78 | 0 | 0.0 | 4.0 | 0.00 | 0.00 | 0.00 | 41 | 1018.3 |
| 20260503000108 | 78 | 0 | 0.0 | 4.0 | 0.00 | 0.00 | 0.00 | 40 | 1018.3 |
| 20260502235555 | 78 | 0 | 1.0 | 4.0 | 0.00 | 0.00 | 0.00 | 42 | 1018.4 |
| 20260502235055 | 78 | 0 | 1.0 | 3.0 | 0.00 | 0.00 | 0.00 | 40 | 1018.4 |
| 20260502234614 | 78 | 271 | 0.0 | 4.0 | 0.00 | 0.00 | 0.00 | 41 | 1018.4 |
| 20260502234056 | 78 | 0 | 1.0 | 6.0 | 0.00 | 0.00 | 0.00 | 38 | 1018.5 |
| 20260502233558 | 78 | 271 | 1.0 | 6.0 | 0.00 | 0.00 | 0.00 | 40 | 1018.5 |
| 20260502233109 | 77 | 254 | 2.0 | 6.0 | 0.00 | 0.00 | 0.00 | 40 | 1018.5 |
| 20260502232555 | 77 | 269 | 1.0 | 6.0 | 0.00 | 0.00 | 0.00 | 40 | 1018.6 |
| 20260502232055 | 77 | 0 | 0.0 | 3.0 | 0.00 | 0.00 | 0.00 | 43 | 1018.6 |
| 20260502231606 | 77 | 0 | 0.0 | 3.0 | 0.00 | 0.00 | 0.00 | 41 | 1018.5 |
| 20260502231055 | 78 | 0 | 0.0 | 3.0 | 0.00 | 0.00 | 0.00 | 40 | 1018.6 |
| 20260502230554 | 78 | 0 | 0.0 | 3.0 | 0.00 | 0.00 | 0.00 | 43 | 1018.6 |
| 20260502230056 | 77 | 201 | 0.0 | 3.0 | 0.00 | 0.00 | 0.00 | 41 | 1018.7 |
| 20260502225555 | 77 | 0 | 1.0 | 4.0 | 0.00 | 0.00 | 0.00 | 40 | 1018.7 |
| 20260502225057 | 77 | 269 | 2.0 | 6.0 | 0.00 | 0.00 | 0.00 | 41 | 1018.8 |
| 20260502224555 | 78 | 271 | 1.0 | 6.0 | 0.00 | 0.00 | 0.00 | 39 | 1018.8 |
| 20260502224055 | 79 | 199 | 2.0 | 5.0 | 0.00 | 0.00 | 0.00 | 39 | 1018.8 |
| 20260502223555 | 79 | 0 | 1.0 | 5.0 | 0.00 | 0.00 | 0.00 | 41 | 1018.8 |
| 20260502223057 | 79 | 178 | 0.0 | 4.0 | 0.00 | 0.00 | 0.00 | 40 | 1018.7 |
| 20260502222555 | 80 | 244 | 0.0 | 7.0 | 0.00 | 0.00 | 0.00 | 39 | 1018.8 |
| 20260502222056 | 80 | 225 | 1.0 | 7.0 | 0.00 | 0.00 | 0.00 | 38 | 1018.9 |
| 20260502221603 | 80 | 288 | 2.0 | 7.0 | 0.00 | 0.00 | 0.00 | 39 | 1018.9 |
| 20260502221057 | 80 | 296 | 1.0 | 4.0 | 0.00 | 0.00 | 0.00 | 40 | 1018.8 |
| 20260502220555 | 78 | 0 | 0.0 | 4.0 | 0.00 | 0.00 | 0.00 | 38 | 1018.9 |
| 20260502220104 | 78 | 0 | 0.0 | 6.0 | 0.00 | 0.00 | 0.00 | 38 | 1018.9 |
| 20260502215555 | 79 | 0 | 1.0 | 6.0 | 0.00 | 0.00 | 0.00 | 39 | 1018.9 |
| 20260502215054 | 79 | 341 | 1.0 | 4.0 | 0.00 | 0.00 | 0.00 | 39 | 1018.9 |
| 20260502214606 | 79 | 0 | 0.0 | 6.0 | 0.00 | 0.00 | 0.00 | 37 | 1019.0 |
| 20260502214055 | 80 | 274 | 2.0 | 6.0 | 0.00 | 0.00 | 0.00 | 38 | 1019.1 |